Regional Weather Roundup
Issued by NWS

Home | Current Version | Previous Version | Graphics & Text | Print | Product List | Glossary Off
Versions: 1 2 3 4 5 6 7 8 9 10 11 12 13 14 15 16 17 18 19 20 21 22 23 24 25 26 27 28 29 30 31 32 33 34 35 36 37 38 39 40 41 42 43 44 45 46 47 48 49 50

672
ASUS43 KTOP 200808
RWRKS

WEATHER ROUNDUP FOR KANSAS
NATIONAL WEATHER SERVICE GOODLAND KS
200 AM CST SAT JAN 20 2018

NOTE:  "FAIR" INDICATES FEW OR NO CLOUDS BELOW 12,000 FEET WITH NO
SIGNIFICANT WEATHER AND/OR OBSTRUCTIONS TO VISIBILITY.

KSZ001>006-013>018-027>032-041>047-200900-
NORTHWEST KANSAS

CITY           SKY/WX    TMP DP  RH WIND       PRES   REMARKS
GOODLAND       MOCLDY    30  19  63 NW7       29.71F
HAYS           CLOUDY    32  16  51 SE5       29.70F
HILL CITY      CLOUDY    28  19  69 W3        29.70R
RUSSELL        CLOUDY    39  23  52 S14       29.69F WCI  31
$$

KSZ061>065-074>080-084>089-200900-
SOUTHWEST KANSAS

CITY           SKY/WX    TMP DP  RH WIND       PRES   REMARKS
DODGE CITY     CLOUDY    39  17  41 S13       29.69F WCI  31
ELKHART        CLEAR     48  20  32 W14       29.72F
GARDEN CITY    CLOUDY   N/A N/A N/A S9        29.68F
GREAT BEND     CLOUDY    31  21  66 S6        29.72F
LIBERAL        CLOUDY    30  15  53 W9        29.71S
PRATT          CLOUDY    38  25  60 S14       29.74F WCI  29
$$

KSZ066>073-081>083-090>101-200900-
SOUTHEAST KANSAS

CITY           SKY/WX    TMP DP  RH WIND       PRES   REMARKS
CHANUTE          N/A    N/A N/A N/A MISG      29.89S
COFFEYVILLE    CLOUDY    44  40  85 S12G21    29.91S
HUTCHINSON     CLOUDY    39  35  86 S13       29.77S WCI  31
MEDICINE LODGE   N/A     41  36  82 SE9       29.76S
NEWTON         CLOUDY    42  37  82 S18       29.79F
PARSONS        CLOUDY    42  39  89 S7        29.91F
WICHITA INTL   CLOUDY    43  39  86 S13       29.80F
WICHITA JABRA  CLOUDY    43  40  89 S15G22    29.81S
WICHITA MCCONL CLOUDY    44  39  83 S18G24    29.81S
WINFIELD       CLOUDY    47  44  90 S17G24    29.84S
$$

KSZ007>012-019>026-033>040-048>060-102>105-200900-
NORTHEAST KANSAS

CITY           SKY/WX    TMP DP  RH WIND       PRES   REMARKS
CONCORDIA      CLOUDY    37  24  59 CALM      29.75S
EMPORIA        CLOUDY    40  35  83 S18G28    29.80F WCI  31
LAWRENCE       CLOUDY    41  35  79 SE7       29.84F
MANHATTAN      CLOUDY    39  31  72 S7        29.78F
MARYSVILLE     CLOUDY    32  27  80 CALM      29.79R
OLATHE IND     CLOUDY    40  36  86 S13       29.86S WCI  32
OLATHE EXE     CLOUDY    40  36  86 S13       29.86S WCI  32
SALINA         CLOUDY    42  33  70 S17G28    29.75S
TOPEKA BILLARD PTCLDY    41  34  76 S7        29.83S
TOPEKA FORBES  PTCLDY    42  35  76 S13       29.81S
$$




USA.gov is the U.S. government's official web portal to all federal, state and local government web resources and services.